Location: ??????
(55.6361°N, 38.0803°E)
Time: 00:16:28
(UTC+00:00)

Okean 2 Rocket - Pass Details

Date: 30 March 2020
Orbit: 617 x 641 km, 82.5° (Epoch: 27 May)

Event Time Altitude Azimuth Distance (km) Brightness Sun altitude
Rises 02:20:17 0° 345° (NNW) 2,934 6.6 -6.7°
Reaches altitude 10° 02:22:34 10° 341° (NNW) 2,025 5.7 -6.4°
Maximum altitude 02:26:56 54° 265° (W) 777 3.2 -5.8°
Drops below altitude 10° 02:31:19 10° 188° (S) 2,024 5.5 -5.2°
Sets 02:33:35 0° 184° (S) 2,931 6.3 -4.9°
